Location: Vista Encantada
(35.1109°N, 106.5681°W)
Time: 08:57:55
(UTC+00:00)

Cosmos 1697 Rocket - Pass Details

Date: 29 October 2020
Orbit: 831 x 845 km, 71.0° (Epoch: 05 December)

Event Time Altitude Azimuth Distance (km) Brightness Sun altitude
Exits shadow 12:31:40 - 312° (NW) 2,519 4.7 -11.5°
Reaches altitude 10° 12:31:51 10° 311° (NW) 2,465 4.6 -11.5°
Maximum altitude 12:36:21 25° 258° (WSW) 1,644 3.7 -10.6°
Drops below altitude 10° 12:40:50 10° 205° (SSW) 2,456 5.0 -9.7°
Sets 12:43:41 0° 193° (SSW) 3,387 5.8 -9.1°
